Flag for Greece Weather past 2 weeks in Kalamata, Greece

Now
77 °F

Passing clouds.


Feels Like: 79 °F
Forecast: 68 / 92 °F
Wind: 6 mph from Northeast

Location: Kalamata Airport

Current Time: Aug 2, 2014 at 9:54:11 AM

Latest Report: Aug 2, 2014 at 8:50 AM


Visibility: N/A

Pressure: 29.77 "Hg

Humidity: 61%

Dew point: 63 °F

Location of KalamataLocation

Historic Weather in Kalamata — Graph

°F

Kalamata temperature yesterday

Maximum temperature yesterday: 88 °F (at 12:50 PM)
Minimum temperature yesterday: 66 °F (at 6:50 AM)
Average temperature yesterday: 78 °F

Past Weeks' High & Low Weather Summary

 TemperatureHumidityPressure
High93 °F (Jul 29, 1:20 PM)94% (Jul 19, 10:20 PM)29.92 "Hg (Jul 19, 10:20 PM)
Low63 °F (Jul 28, 6:20 AM)30% (Jul 29, 1:20 PM)29.68 "Hg (Jul 31, 4:50 PM)
Average79 °F63%29.81 "Hg
* Reported Jul 18 7:20 AM — Aug 2 7:50 AM, Kalamata, Weather by CustomWeather, © 2014

Note: Actual official high and low records may vary slightly from our data, if they occured in-between our weather recording intervals... More about our weather records

Advertising

Kalamata weather history for previous 24 hours

 ConditionsComfort  
Time TempWeatherWind HumidityBarometerVisibility
7:50 AM
Aug 2
73 °FPassing clouds.No wind74%29.77 "HgN/A
7:20 AM72 °FPassing clouds.No wind73%29.77 "HgN/A
6:50 AM70 °FPassing clouds.No wind78%29.77 "HgN/A
6:20 AM72 °FPassing clouds.No wind73%29.74 "HgN/A
5:50 AM72 °FPassing clouds.No wind73%29.74 "HgN/A
5:20 AM68 °FPassing clouds.No wind83%29.74 "HgN/A
4:50 AM68 °FMild.No wind83%29.74 "HgN/A
4:20 AM70 °FMild.1 mph78%29.74 "HgN/A
3:50 AM70 °FMild.2 mph78%29.74 "HgN/A
3:20 AM70 °FMild.2 mph78%29.74 "HgN/A
2:50 AM70 °FMild.3 mph78%29.74 "HgN/A
2:20 AM72 °FMild.5 mph73%29.77 "HgN/A
1:50 AM72 °FMild.3 mph73%29.77 "HgN/A
1:20 AM73 °FMild.3 mph69%29.77 "HgN/A
12:50 AM73 °FMild.8 mph69%29.77 "HgN/A
12:20 AM73 °FMild.8 mph69%29.77 "HgN/A
11:50 PM
Aug 1
75 °FPassing clouds.6 mph69%29.77 "HgN/A
11:20 PM73 °FPassing clouds.5 mph74%29.74 "HgN/A
10:50 PM75 °FPassing clouds.6 mph65%29.74 "HgN/A
10:20 PM75 °FPassing clouds.5 mph69%29.74 "HgN/A
9:50 PM75 °FPassing clouds.5 mph69%29.74 "HgN/A
9:20 PM75 °FPassing clouds.6 mph65%29.74 "HgN/A
8:50 PM75 °FPassing clouds.5 mph65%29.74 "HgN/A
8:20 PM77 °FPassing clouds.7 mph57%29.74 "HgN/A
7:50 PM79 °FPassing clouds.5 mph51%29.71 "HgN/A
7:20 PM81 °FPassing clouds.8 mph48%29.71 "HgN/A
6:50 PM82 °FPassing clouds.5 mph42%29.71 "HgN/A
6:20 PM84 °FPassing clouds.7 mph40%29.71 "HgN/A
5:50 PM84 °FPassing clouds.6 mph37%29.71 "HgN/A
5:20 PM86 °FPassing clouds.9 mph35%29.71 "HgN/A
4:50 PM86 °FPassing clouds.8 mph35%29.71 "HgN/A
4:20 PM86 °FPassing clouds.10 mph31%29.71 "HgN/A
3:50 PM86 °FPassing clouds.13 mph31%29.71 "HgN/A
3:20 PM88 °FPassing clouds.10 mph31%29.71 "HgN/A
2:50 PM88 °FPassing clouds.12 mph31%29.71 "HgN/A
2:20 PM88 °FPassing clouds.10 mph33%29.71 "HgN/A
1:50 PM88 °FPassing clouds.10 mph33%29.71 "HgN/A
1:20 PM88 °FPassing clouds.8 mph35%29.71 "HgN/A
12:50 PM88 °FPassing clouds.8 mph38%29.71 "HgN/A
12:20 PM86 °FPassing clouds.8 mph40%29.71 "HgN/A
11:50 AM84 °FPassing clouds.5 mph43%29.71 "HgN/A
11:20 AM84 °FPassing clouds.5 mph43%29.71 "HgN/A
10:50 AM82 °FPassing clouds.6 mph48%29.71 "HgN/A
10:20 AM82 °FPassing clouds.7 mph51%29.71 "HgN/A
9:50 AM81 °FPassing clouds.5 mph54%29.71 "HgN/A
9:20 AM79 °FPassing clouds.8 mph58%29.71 "HgN/A
Weather by CustomWeather, © 2014

See weather overviewHow to use our weather pages